Find Starlink 31394

NORAD ID: 59185 Int'l Des: 2024-045 Owner: SPXS Country: US Constellation: starlink operational
LEOCIRCULAR

Current View

Loading 3D Globe...

About Starlink 31394

Starlink 31394 (NORAD 59185) is a starlink constellation satellite (v2 mini) launched Mar 11, 2024 by SPXS of US. It operates in LEO, CIRCULAR orbit with a mass of 730.00 kg.

Upcoming Passes

Passes for default location (London). Set your location on the main map for personalized predictions.

Altitude History

Loading altitude history...

Two-Line Element Set

1 59185U 24045H 26237.91447414 .00002181 00000-0 88767-4 0 9999
2 59185 43.0009 206.3514 0001135 244.7319 115.3415 15.27568683139168
Epoch: Aug 25, 2026 • Age: 19 hours

Current Status

Altitude 486.6 km
Apogee / Perigee N/A
Velocity 7.63 km/s
Sub-Earth Point 42.01°N, 74.62°E
Launch Date Mar 11, 2024
Age 2.4 years
Type internet

Technical Details

Classification Payload
Mass 730.00 kg
Dry Mass 700.00 kg
Total Mass 730.00 kg
Length 0.30 m
Diameter 4.10 m
Span 29.00 m
Shape Box + pan
Manufacturer SPXS
Bus Type Starlink V2M
Phase Status In Orbit
Owner/State SPXS/US

Most Searched